Regional Weather Roundup
Issued by NWS

Home | Current Version | Previous Version | Graphics & Text | Print | Product List | Glossary On
Versions: 1 2 3 4 5 6 7 8 9 10 11 12 13 14 15 16 17 18 19 20 21 22 23 24 25 26 27 28 29 30 31 32 33 34 35 36 37 38 39 40 41 42 43 44 45 46 47 48 49 50
000
ASUS45 KABQ 021910
RWRNM
WEATHER ROUNDUP FOR NEW MEXICO
NATIONAL WEATHER SERVICE ALBUQUERQUE NM
1200 PM MST MON MAR 02 2015

NOTE: "FAIR" MEANS FEW OR NO CLOUDS BELOW 12,000 FEET AGL WITH NO
       SIGNIFICANT WEATHER OR OBSTRUCTIONS TO VISION.

      THIS PRODUCT IS RELEASED AS TWO VERSIONS.  ONE VERSION NEAR
      THE TOP OF THE HOUR CONTAINING PRELIMINARY DATA FROM ALBUQUERQUE
      AND OTHER STATIONS.  A FINAL VERSION WITH ADDITIONAL DATA IS
      ISSUED ABOUT 10 MINUTES AFTER THE HOUR.

NMZ501-503-504-510>518-022000-
NORTHWEST PLATEAU/NORTHCENTRAL MOUNTAINS

CITY           SKY/WX    TMP DP  RH WIND       PRES   REMARKS
FARMINGTON     SUNNY     55  34  45 SE12      29.86F
LOS ALAMOS     CLOUDY    40  29  63 SE6       30.02F
SANTA FE       CLOUDY    43  29  57 S18G25    30.01F
TAOS           PTSUNNY   39  27  60 CALM      30.02F
ANGEL FIRE     CLOUDY    44  27  52 SW12G17   30.02F

$$
NMZ402-403-502-505>509-022000-
WESTCENTRAL MOUNTAINS/SOUTHWEST MOUNTAINS

CITY           SKY/WX    TMP DP  RH WIND       PRES   REMARKS
GALLUP         PTSUNNY   54  32  43 SW25G38   29.88F
GRANTS         PTSUNNY   58  30  33 MISG      29.93F
SILVER CITY    CLOUDY    55  32  41 SW6       30.05F

$$
NMZ407-409-411-412-022000-
SOUTHERN DESERTS

CITY           SKY/WX    TMP DP  RH WIND       PRES   REMARKS
LORDSBURG      CLOUDY    59  41  51 SW15G26   30.02S
DEMING         CLOUDY    63  34  33 S7        30.01F
LAS CRUCES     CLOUDY    58  31  36 SE9       30.04F
HOLLOMAN AFB   CLOUDY    65  32  29 S21G29    30.00F
ALAMOGORDO     CLOUDY    64  34  32 S25G33    30.02F
T OR C         CLOUDY    62  33  33 S15       30.00F

$$
NMZ519>523-022000-
CENTRAL VALLEYS/CENTRAL HIGHLANDS

CITY           SKY/WX    TMP DP  RH WIND       PRES   REMARKS
ALBUQUERQUE    CLOUDY    50  33  52 N8        29.98F
DOUBLE EAGLE   CLOUDY    50  34  53 SE8       29.99F
MORIARTY ARPT  FAIR      42  30  62 SE9       30.05F
CLINES CORNERS CLOUDY    36  33  89 S13       30.02F WCI  27
BELEN          MOCLDY    61  29  29 S23G29    29.95F
SOCORRO          N/A     63  31  30 S26G32    29.96F

$$
NMZ524>526-539-540-022000-
SOUTHCENTRAL MOUNTAINS

CITY           SKY/WX    TMP DP  RH WIND       PRES   REMARKS
RUIDOSO        PTSUNNY   57  32  38 S25G41    30.08F

$$
NMZ527>531-022000-
NORTHEAST HIGHLANDS/NORTHEAST PLAINS

CITY           SKY/WX    TMP DP  RH WIND       PRES   REMARKS
LAS VEGAS      CLOUDY    29  27  92 S15       30.04F WCI  18
RATON          CLOUDY    28  26  92 SW6       30.03F WCI  22
CLAYTON        CLOUDY    30  27  88 SW24      30.02F WCI  16

$$
NMZ532>537-022000-
EASTCENTRAL PLAINS

CITY           SKY/WX    TMP DP  RH WIND       PRES   REMARKS
TUCUMCARI      CLOUDY    34  31  88 SW13      30.13F WCI  25
CANNON AFB     CLOUDY    32  31  99 S8        30.14F FOG     WCI  24
CLOVIS AIRPORT CLOUDY    30  28  93 S13       30.15F WCI  20

$$
NMZ028-029-538-022000-
SOUTHEAST PLAINS

CITY           SKY/WX    TMP DP  RH WIND       PRES   REMARKS
ROSWELL        CLOUDY    37  33  85 S18       30.17F WCI  27
ARTESIA        CLOUDY    36  36 100 S13       30.19F WCI  27
CARLSBAD       CLOUDY    37  33  85 SE10      30.18F WCI  30
HOBBS          CLOUDY    34  34 100 SE10      30.20F WCI  26


$$


USA.gov is the U.S. government's official web portal to all federal, state and local government web resources and services.